954  
NZUS59 KLOT 231009  
HRRLOT  
 
CHICAGO AREA WEATHER ROUNDUP  
NATIONAL WEATHER SERVICE CHICAGO/ROMEOVILLE IL  
500 AM CDT SUN JUL 23 2017  
 
NOTE: "FAIR" INDICATES FEW OR NO CLOUDS BELOW 12,000 FEET WITH NO  
SIGNIFICANT WEATHER AND/OR OBSTRUCTIONS TO VISIBILITY.  
 
* THESE STATIONS ARE NOT UNDER NWS QUALITY CONTROL. THEY ALSO MAY NOT  
REPORT WEATHER SUCH AS PRECIPITATION OR FOG.  
 
ILZ005-006-012>014-019>023-231100-  
NORTHEAST ILLINOIS  
 
CITY SKY/WX TMP DP RH WIND PRES REMARKS  
OHARE PTCLDY 71 68 90 CALM 29.78S  
MIDWAY CLOUDY 74 70 87 SW5 29.78S  
AURORA CLOUDY 74 73 97 SE3 29.80R FOG  
LANSING* CLOUDY 72 69 90 CALM 29.80R  
JOLIET* MOCLDY 75 73 94 CALM 29.80S  
WAUKEGAN PTCLDY 68 68 100 SW3 29.78S FOG  
DUPAGE AIRPORT PTCLDY 70 70 100 CALM 29.79R FOG  
WHEELING PTCLDY 73 72 96 CALM 29.80R  
MORRIS* CLOUDY 74 73 96 CALM 29.79R  
LEWIS AIRPORT* PTCLDY 73 69 89 CALM 29.80S  
NORTHERLY ISL N/A 72 69 90 CALM N/A  

 
 
WIZ051-052-058>065-066-070>072-231100-  
SOUTHEAST WISCONSIN  
 
CITY SKY/WX TMP DP RH WIND PRES REMARKS  
MILWAUKEE CLOUDY 72 70 93 NE6 29.79R FOG  
KENOSHA* PTCLDY 68 67 96 SW3 29.79R FOG  
RACINE* MOCLDY 70 70 100 SW3 29.80R  
WAUKESHA CLOUDY 68 66 94 NE3 29.81R  
WEST BEND CLOUDY 66 66 100 E5 29.81R  

 
 
INZ001>003-010>013-019-020-231100-  
NORTHWEST INDIANA  
 
CITY SKY/WX TMP DP RH WIND PRES REMARKS  
GARY* PTCLDY 72 70 94 CALM 29.79S  
MICHIGAN CITY* NOT AVBL  
RENSSELAER* NOT AVBL  
VALPARAISO MOCLDY 72 70 93 CALM 29.80S  

 
 
LMZ740>746-231100-  
SOUTHERN LAKE MICHIGAN  
 
STATION/POSITION TIME SKY/WX TEMP WIND PRES VSBY  
AIR DIR/SP/G  
(UTC) (F) (DEG/KT/KT) (MB) (MI)  
HARRISON CRIB 0940 76 290/ 4/ 4 N/A  
BURNHAM HARBOR 1000 73 N/A  
CALUMET HARBOR 0942 73 190/ 1/ 2 1008.3R  
BURNS HARBOR 0940 73 170/ 2/ 2 1009.5R  
MICHIGAN CITY 0940 72 140/ 2/ 3 N/A  

 
 
ABBREVIATIONS USED IN REMARKS  
TC - TEMPERATURE IN CELSIUS  
WCI - WIND CHILL INDEX  
HX - HEAT INDEX  
VSB - VISIBILITY  

 
 
 
CLICK HERE TO GO TO PREVIOUS BULLETINS.

The Nexlab IL Page
The Nexlab IN Page Main Text Page